Change the Weather History Date:

Monday, December 10, 2012

  Actual Average Record
Temperature  
Mean Temperature 46 °F 39 °F  
Max Temperature 58 °F 47 °F 71 °F (1971)
Min Temperature 33 °F 31 °F -4 °F (1917)
Degree Days  
Heating Degree Days 19 26  
Month to date heating degree days 104 245  
Since 1 July heating degree days 958 980  
Cooling Degree Days 0 0  
Month to date cooling degree days 4 0  
Year to date cooling degree days 1952 1613  
Moisture  
Dew Point 40 °F    
Average Humidity 88    
Maximum Humidity 100    
Minimum Humidity 75    
Precipitation  
Precipitation 0.12 in 0.12 in 1.64 in (1879)
Month to date precipitation 4.46 1.26  
Year to date precipitation 43.00 42.34  
Snow  
Snow T in 0.00 in 1.40 in (1932)
Month to date snowfall T 0.5  
Since 1 July snowfall T 0.7  
Snow Depth 0.00 in    
Sea Level Pressure  
Sea Level Pressure 29.79 in    
Wind  
Wind Speed 10 mph (WNW)    
Max Wind Speed 17 mph    
Max Gust Speed 21 mph    
Visibility 9 miles    
Events Rain    
T = Trace of Precipitation, MM = Missing Value Source: NWS Daily Summary

Daily Weather History Graph

Daily Weather History Graph

Search for Another Location

Airport or City:

Trip Planner

Search our weather history database for the weather conditions in past years. The results will help you decide how hot, cold, wet, or windy it might be!

Date:

Astronomy

Dec. 10, 2012 Rise Set
Actual Time 7:48 AM EST 5:23 PM EST
Civil Twilight 7:19 AM EST 5:52 PM EST
Nautical Twilight 6:46 AM EST 6:25 PM EST
Astronomical Twilight 6:14 AM EST 6:57 PM EST
Moon 4:33 AM EST (12/10) 3:10 PM EST (12/10)
Length of Visible Light 10h 33m
Length of Day
9h 34m
Waning Crescent, 10% of the Moon is Illuminated
Dec 10
Waning Crescent
Dec 13
New
Dec 20
First Quarter
Dec 28
Full
Jan 4
Last Quarter

Hourly Weather History & Observations

Time (EST) Temp. Windchill Dew Point Humidity Pressure Visibility Wind Dir Wind Speed Gust Speed Precip Events Conditions
12:41 AM 57.2 °F - 57.2 °F 100% 29.71 in 10.0 mi SW 3.5 mph - 0.07 in Rain Light Rain
12:56 AM 57.9 °F - 57.0 °F 97% 29.71 in 10.0 mi SW 5.8 mph - 0.08 in Rain Light Rain
1:51 AM 57.2 °F - 55.4 °F 94% 29.71 in 10.0 mi WSW 8.1 mph - N/A   Overcast
1:56 AM 57.9 °F - 55.9 °F 93% 29.71 in 9.0 mi WSW 8.1 mph - 0.01 in   Overcast
2:06 AM 57.2 °F - 55.4 °F 94% 29.71 in 6.0 mi WNW 11.5 mph - 0.00 in Rain Light Rain
2:11 AM 55.4 °F - 53.6 °F 94% 29.71 in 4.0 mi NW 16.1 mph 19.6 mph 0.00 in Rain Light Rain
2:26 AM 53.6 °F - 53.6 °F 100% 29.73 in 5.0 mi NW 15.0 mph - 0.00 in   Overcast
2:43 AM 53.6 °F - 51.8 °F 94% 29.73 in 6.0 mi NW 10.4 mph - 0.00 in   Overcast
2:56 AM 53.1 °F - 51.1 °F 93% 29.72 in 6.0 mi NW 10.4 mph - 0.00 in Rain Light Rain
3:18 AM 53.6 °F - 51.8 °F 94% 29.73 in 7.0 mi NW 9.2 mph - 0.03 in Rain Light Rain
3:56 AM 51.1 °F - 48.9 °F 92% 29.73 in 10.0 mi WNW 11.5 mph - 0.03 in   Overcast
4:56 AM 48.0 °F - 46.0 °F 93% 29.74 in 7.0 mi NW 9.2 mph - N/A   Overcast
5:31 AM 48.2 °F - 44.6 °F 87% 29.74 in 9.0 mi NW 9.2 mph - N/A   Overcast
5:46 AM 46.4 °F 41.5 °F 44.6 °F 93% 29.74 in 9.0 mi NW 10.4 mph - N/A   Overcast
5:56 AM 46.9 °F - 44.1 °F 90% 29.74 in 9.0 mi WNW 6.9 mph - N/A   Overcast
6:54 AM 46.4 °F 42.4 °F 42.8 °F 87% 29.74 in 9.0 mi NW 8.1 mph - N/A   Overcast
6:56 AM 46.0 °F 41.9 °F 43.0 °F 89% 29.74 in 9.0 mi WNW 8.1 mph - N/A   Overcast
7:15 AM 46.4 °F 40.7 °F 42.8 °F 87% 29.75 in 9.0 mi WNW 12.7 mph - N/A   Overcast
7:56 AM 45.0 °F 40.1 °F 42.1 °F 90% 29.75 in 7.0 mi NW 9.2 mph - N/A   Overcast
8:56 AM 43.0 °F 36.0 °F 39.0 °F 86% 29.75 in 7.0 mi NW 13.8 mph - 0.00 in   Overcast
9:18 AM 42.8 °F 35.8 °F 37.4 °F 81% 29.77 in 8.0 mi NW 13.8 mph 20.7 mph N/A   Overcast
9:40 AM 42.8 °F 38.6 °F 35.6 °F 76% 29.76 in 10.0 mi NNW 6.9 mph - N/A   Overcast
9:56 AM 43.0 °F 37.2 °F 35.1 °F 74% 29.77 in 10.0 mi NW 10.4 mph - N/A   Overcast
10:56 AM 42.1 °F 36.6 °F 36.0 °F 79% 29.79 in 5.0 mi WNW 9.2 mph - 0.01 in Rain Light Rain
11:30 AM 42.8 °F 37.5 °F 35.6 °F 76% 29.78 in 10.0 mi WNW 9.2 mph - 0.00 in Rain Light Rain
11:56 AM 42.1 °F 36.6 °F 36.0 °F 79% 29.78 in 10.0 mi WNW 9.2 mph - 0.00 in Rain Light Rain
12:56 PM 39.9 °F 32.5 °F 34.0 °F 79% 29.78 in 10.0 mi NW 12.7 mph - 0.00 in   Overcast
1:56 PM 39.0 °F 32.8 °F 34.0 °F 82% 29.78 in 9.0 mi NNW 9.2 mph - N/A   Overcast
2:56 PM 37.9 °F 31.5 °F 32.0 °F 79% 29.80 in 10.0 mi WNW 9.2 mph - N/A   Overcast
3:56 PM 36.0 °F 28.0 °F 30.0 °F 79% 29.83 in 10.0 mi WNW 11.5 mph - 0.00 in   Overcast
4:56 PM 35.1 °F 26.9 °F 30.0 °F 82% 29.83 in 6.0 mi NNW 11.5 mph - N/A   Haze
5:56 PM 35.1 °F 27.9 °F 28.9 °F 78% 29.86 in 10.0 mi NW 9.2 mph - N/A   Overcast
6:56 PM 34.0 °F 25.5 °F 27.0 °F 75% 29.90 in 10.0 mi NW 11.5 mph - N/A   Overcast
7:56 PM 34.0 °F 26.6 °F 27.0 °F 75% 29.94 in 10.0 mi NW 9.2 mph - N/A   Overcast
8:56 PM 33.1 °F 24.9 °F 27.0 °F 78% 29.96 in 10.0 mi NW 10.4 mph - N/A   Overcast
9:56 PM 33.1 °F 25.5 °F 27.0 °F 78% 29.98 in 10.0 mi WNW 9.2 mph - N/A   Overcast
10:56 PM 33.1 °F 25.5 °F 27.0 °F 78% 29.99 in 10.0 mi WNW 9.2 mph - N/A   Overcast
11:30 PM 33.8 °F 27.7 °F 26.6 °F 75% 29.99 in 9.0 mi WNW 6.9 mph - N/A   Overcast
11:56 PM 33.1 °F 26.9 °F 28.0 °F 82% 30.01 in 9.0 mi WNW 6.9 mph - N/A   Overcast